FDX9295 CYHZ-CYQM

Flight info

Callsign FDX9295
Flight time 0h 55m
Altitude 8000
Route IKDEM
Aircraft C208/L-SDFGR/C

Departure

Time 2026-05-03 20:33
Airport Halifax / Stanfield International Airport (CYHZ)

Arrival

Time 2026-05-03 21:29
Airport Greater Moncton Roméo LeBlanc International Airport (CYQM)
Time Latitude Longitude Altitude Speed Heading
2026-05-03 20:23 44.87903 -63.51955 483 ft 0 kts 334°
2026-05-03 20:23 44.87905 -63.51955 483 ft 1 kts 359°
2026-05-03 20:23 44.87910 -63.51945 483 ft 2 kts 91°
2026-05-03 20:24 44.87900 -63.51937 483 ft 3 kts 179°
2026-05-03 20:24 44.87862 -63.51927 483 ft 9 kts 139°
2026-05-03 20:24 44.87836 -63.51879 483 ft 5 kts 125°
2026-05-03 20:24 44.87833 -63.51812 483 ft 9 kts 43°
2026-05-03 20:25 44.87896 -63.51749 483 ft 13 kts 41°
2026-05-03 20:25 44.87953 -63.51691 483 ft 8 kts 34°
2026-05-03 20:25 44.88014 -63.51631 483 ft 13 kts 31°
2026-05-03 20:25 44.88099 -63.51549 483 ft 17 kts 34°
2026-05-03 20:26 44.88192 -63.51457 483 ft 17 kts 35°
2026-05-03 20:26 44.88276 -63.51376 483 ft 10 kts 36°
2026-05-03 20:26 44.88332 -63.51321 483 ft 12 kts 34°
2026-05-03 20:26 44.88406 -63.51250 483 ft 16 kts 33°
2026-05-03 20:27 44.88527 -63.51249 483 ft 16 kts 18°
2026-05-03 20:27 44.88603 -63.51237 483 ft 9 kts 354°
2026-05-03 20:27 44.88647 -63.51227 483 ft 5 kts 336°
2026-05-03 20:27 44.88691 -63.51217 483 ft 10 kts 60°
2026-05-03 20:28 44.88703 -63.51135 483 ft 7 kts 75°
2026-05-03 20:28 44.88715 -63.51042 483 ft 12 kts 80°
2026-05-03 20:28 44.88737 -63.50929 483 ft 9 kts 61°
2026-05-03 20:28 44.88788 -63.50860 483 ft 11 kts 36°
2026-05-03 20:29 44.88835 -63.50814 483 ft 10 kts 34°
2026-05-03 20:29 44.88887 -63.50730 483 ft 12 kts 127°
2026-05-03 20:29 44.88831 -63.50612 483 ft 15 kts 122°
2026-05-03 20:29 44.88776 -63.50537 483 ft 8 kts 220°
2026-05-03 20:30 44.88732 -63.50589 483 ft 6 kts 214°
2026-05-03 20:30 44.88730 -63.50590 483 ft 0 kts 217°
2026-05-03 20:31 44.88730 -63.50591 483 ft 0 kts 217°
2026-05-03 20:32 44.88726 -63.50595 483 ft 9 kts 216°
2026-05-03 20:32 44.88520 -63.50799 483 ft 60 kts 213°
2026-05-03 20:32 44.88103 -63.51217 576 ft 81 kts 218°
2026-05-03 20:32 44.87571 -63.51694 658 ft 95 kts 213°
2026-05-03 20:33 44.87009 -63.52184 842 ft 95 kts 211°
2026-05-03 20:33 44.86448 -63.52668 1009 ft 95 kts 212°
2026-05-03 20:33 44.85891 -63.53160 1187 ft 94 kts 212°
2026-05-03 20:33 44.85336 -63.53653 1369 ft 93 kts 214°
2026-05-03 20:34 44.84782 -63.54136 1544 ft 93 kts 214°
2026-05-03 20:34 44.84224 -63.54628 1710 ft 95 kts 212°
2026-05-03 20:34 44.83676 -63.55109 1891 ft 94 kts 212°
2026-05-03 20:34 44.83139 -63.55582 2083 ft 89 kts 212°
2026-05-03 20:35 44.82628 -63.56038 2256 ft 85 kts 213°
2026-05-03 20:35 44.82308 -63.56321 2373 ft 84 kts 213°
2026-05-03 20:35 44.81819 -63.56749 2547 ft 81 kts 213°
2026-05-03 20:35 44.81344 -63.57165 2724 ft 79 kts 212°
2026-05-03 20:36 44.80935 -63.57523 2879 ft 78 kts 213°
2026-05-03 20:36 44.80480 -63.57919 3048 ft 76 kts 213°
2026-05-03 20:36 44.80088 -63.58257 3198 ft 75 kts 213°
2026-05-03 20:36 44.79644 -63.58626 3383 ft 74 kts 213°
2026-05-03 20:37 44.79298 -63.59144 3522 ft 82 kts 241°
2026-05-03 20:37 44.79579 -63.59990 3724 ft 117 kts 302°
2026-05-03 20:37 44.80433 -63.60307 3979 ft 134 kts 339°
2026-05-03 20:37 44.81386 -63.60285 4186 ft 140 kts 348°
2026-05-03 20:38 44.82375 -63.60164 4358 ft 144 kts 351°
2026-05-03 20:38 44.83376 -63.60004 4539 ft 146 kts 352°
2026-05-03 20:38 44.84408 -63.59842 4729 ft 153 kts 352°
2026-05-03 20:38 44.85499 -63.59673 4902 ft 163 kts 352°
2026-05-03 20:39 44.86666 -63.59495 4999 ft 175 kts 353°
2026-05-03 20:39 44.87061 -63.59439 4999 ft 178 kts 352°
2026-05-03 20:39 44.88706 -63.59533 5010 ft 174 kts 334°
2026-05-03 20:39 44.90188 -63.60250 5011 ft 167 kts 317°
2026-05-03 20:40 44.91185 -63.61043 5006 ft 163 kts 310°
2026-05-03 20:40 44.91818 -63.61642 5002 ft 161 kts 308°
2026-05-03 20:40 44.92715 -63.62581 4997 ft 160 kts 305°
2026-05-03 20:40 44.93593 -63.63542 4995 ft 160 kts 304°
2026-05-03 20:41 44.94460 -63.64491 5107 ft 152 kts 304°
2026-05-03 20:41 44.95274 -63.65378 5288 ft 144 kts 303°
2026-05-03 20:41 44.96044 -63.66228 5473 ft 138 kts 301°
2026-05-03 20:41 44.96789 -63.67055 5665 ft 134 kts 301°
2026-05-03 20:42 44.97516 -63.67865 5854 ft 132 kts 300°
2026-05-03 20:42 44.98231 -63.68662 6042 ft 130 kts 300°
2026-05-03 20:42 44.98930 -63.69444 6232 ft 129 kts 300°
2026-05-03 20:42 44.99629 -63.70226 6426 ft 128 kts 299°
2026-05-03 20:43 45.00191 -63.70853 6581 ft 127 kts 299°
2026-05-03 20:43 45.00884 -63.71627 6776 ft 127 kts 299°
2026-05-03 20:43 45.01575 -63.72398 6968 ft 127 kts 298°
2026-05-03 20:43 45.02268 -63.73171 7155 ft 127 kts 299°
2026-05-03 20:44 45.02958 -63.73945 7343 ft 126 kts 299°
2026-05-03 20:44 45.03646 -63.74712 7546 ft 126 kts 298°
2026-05-03 20:44 45.04335 -63.75481 7736 ft 126 kts 298°
2026-05-03 20:44 45.05030 -63.76258 7888 ft 129 kts 298°
2026-05-03 20:45 45.05742 -63.77061 7981 ft 133 kts 299°
2026-05-03 20:45 45.06486 -63.77901 8003 ft 141 kts 300°
2026-05-03 20:45 45.07269 -63.78781 8003 ft 146 kts 301°
2026-05-03 20:45 45.08076 -63.79683 8002 ft 150 kts 302°
2026-05-03 20:46 45.08902 -63.80605 7999 ft 152 kts 302°
2026-05-03 20:46 45.09740 -63.81540 7996 ft 154 kts 302°
2026-05-03 20:46 45.10583 -63.82481 7996 ft 155 kts 302°
2026-05-03 20:46 45.11421 -63.83418 7993 ft 156 kts 302°
2026-05-03 20:47 45.12284 -63.84384 7988 ft 156 kts 302°
2026-05-03 20:47 45.13120 -63.85317 8000 ft 154 kts 302°
2026-05-03 20:47 45.13961 -63.86258 8002 ft 154 kts 302°
2026-05-03 20:47 45.14799 -63.87199 8001 ft 154 kts 302°
2026-05-03 20:48 45.15641 -63.88145 7996 ft 154 kts 302°
2026-05-03 20:48 45.16481 -63.89086 7993 ft 154 kts 302°
2026-05-03 20:48 45.17319 -63.90028 7983 ft 153 kts 302°
2026-05-03 20:48 45.18154 -63.90966 7985 ft 153 kts 302°
2026-05-03 20:49 45.18985 -63.91900 7985 ft 152 kts 301°
2026-05-03 20:49 45.19816 -63.92834 7984 ft 152 kts 301°
2026-05-03 20:49 45.20645 -63.93767 7987 ft 152 kts 301°
2026-05-03 20:49 45.21476 -63.94702 7980 ft 152 kts 301°
2026-05-03 20:50 45.22305 -63.95634 7977 ft 152 kts 301°
2026-05-03 20:50 45.23132 -63.96565 7979 ft 151 kts 301°
2026-05-03 20:50 45.23959 -63.97497 7976 ft 151 kts 301°
2026-05-03 20:50 45.24782 -63.98425 7979 ft 151 kts 301°
2026-05-03 20:51 45.25610 -63.99361 7978 ft 152 kts 301°
2026-05-03 20:51 45.26437 -64.00298 7979 ft 152 kts 302°
2026-05-03 20:51 45.27254 -64.01223 7978 ft 152 kts 302°
2026-05-03 20:51 45.28038 -64.02110 7977 ft 152 kts 302°
2026-05-03 20:52 45.28864 -64.03045 7976 ft 152 kts 302°
2026-05-03 20:52 45.29690 -64.03978 7975 ft 152 kts 302°
2026-05-03 20:52 45.30515 -64.04910 7975 ft 151 kts 302°
2026-05-03 20:52 45.31342 -64.05846 7974 ft 152 kts 302°
2026-05-03 20:53 45.32169 -64.06781 7973 ft 152 kts 302°
2026-05-03 20:53 45.32993 -64.07714 7969 ft 152 kts 302°
2026-05-03 20:53 45.33821 -64.08656 7968 ft 152 kts 302°
2026-05-03 20:53 45.34651 -64.09594 7971 ft 152 kts 302°
2026-05-03 20:54 45.35475 -64.10528 7971 ft 152 kts 302°
2026-05-03 20:54 45.37117 -64.12387 7968 ft 152 kts 302°
2026-05-03 20:54 45.37945 -64.13325 7967 ft 152 kts 302°
2026-05-03 20:55 45.38769 -64.14260 7967 ft 152 kts 302°
2026-05-03 20:55 45.39594 -64.15194 7968 ft 151 kts 301°
2026-05-03 20:55 45.40418 -64.16129 7968 ft 151 kts 301°
2026-05-03 20:55 45.41241 -64.17064 7961 ft 151 kts 301°
2026-05-03 20:56 45.42065 -64.17999 7958 ft 151 kts 301°
2026-05-03 20:56 45.42885 -64.18929 7960 ft 150 kts 301°
2026-05-03 20:56 45.43703 -64.19859 7962 ft 150 kts 301°
2026-05-03 20:56 45.44521 -64.20790 7959 ft 151 kts 301°
2026-05-03 20:57 45.45340 -64.21724 7962 ft 151 kts 301°
2026-05-03 20:57 45.46162 -64.22661 7967 ft 152 kts 301°
2026-05-03 20:57 45.46979 -64.23593 7965 ft 152 kts 301°
2026-05-03 20:57 45.47804 -64.24533 7962 ft 152 kts 301°
2026-05-03 20:58 45.48630 -64.25473 7964 ft 152 kts 301°
2026-05-03 20:58 45.49455 -64.26413 7962 ft 152 kts 301°
2026-05-03 20:58 45.50281 -64.27353 7959 ft 152 kts 301°
2026-05-03 20:58 45.51106 -64.28293 7951 ft 151 kts 301°
2026-05-03 20:59 45.51920 -64.29218 7944 ft 148 kts 301°
2026-05-03 20:59 45.52716 -64.30120 7947 ft 144 kts 300°
2026-05-03 20:59 45.53494 -64.31008 7961 ft 142 kts 300°
2026-05-03 20:59 45.54264 -64.31891 7955 ft 142 kts 300°
2026-05-03 21:00 45.55036 -64.32776 7957 ft 142 kts 300°
2026-05-03 21:00 45.55544 -64.33358 7958 ft 142 kts 300°
2026-05-03 21:00 45.56567 -64.34531 7950 ft 142 kts 300°
2026-05-03 21:00 45.57346 -64.35422 7950 ft 142 kts 300°
2026-05-03 21:01 45.58103 -64.36289 7944 ft 141 kts 300°
2026-05-03 21:01 45.58880 -64.37179 7943 ft 141 kts 300°
2026-05-03 21:01 45.59557 -64.37953 7950 ft 141 kts 300°
2026-05-03 21:01 45.60322 -64.38831 7950 ft 141 kts 300°
2026-05-03 21:02 45.61088 -64.39710 7946 ft 141 kts 300°
2026-05-03 21:02 45.61856 -64.40590 7947 ft 141 kts 300°
2026-05-03 21:02 45.62623 -64.41471 7947 ft 141 kts 300°
2026-05-03 21:02 45.63388 -64.42347 7943 ft 141 kts 300°
2026-05-03 21:03 45.64156 -64.43224 7944 ft 141 kts 300°
2026-05-03 21:03 45.64923 -64.44102 7945 ft 141 kts 300°
2026-05-03 21:03 45.65680 -64.44972 7940 ft 141 kts 300°
2026-05-03 21:03 45.66446 -64.45850 7952 ft 141 kts 300°
2026-05-03 21:04 45.67222 -64.46743 7942 ft 141 kts 300°
2026-05-03 21:04 45.67978 -64.47612 7944 ft 141 kts 300°
2026-05-03 21:04 45.68744 -64.48495 7938 ft 141 kts 300°
2026-05-03 21:04 45.69510 -64.49375 7943 ft 141 kts 300°
2026-05-03 21:05 45.70276 -64.50258 7940 ft 142 kts 300°
2026-05-03 21:05 45.71044 -64.51141 7940 ft 142 kts 300°
2026-05-03 21:05 45.71809 -64.52022 7941 ft 141 kts 300°
2026-05-03 21:05 45.72575 -64.52908 7941 ft 142 kts 300°
2026-05-03 21:06 45.73345 -64.53798 7936 ft 142 kts 300°
2026-05-03 21:06 45.74116 -64.54686 7937 ft 143 kts 301°
2026-05-03 21:06 45.74893 -64.55581 7936 ft 144 kts 301°
2026-05-03 21:06 45.75672 -64.56479 7935 ft 144 kts 300°
2026-05-03 21:07 45.76451 -64.57378 7934 ft 144 kts 301°
2026-05-03 21:07 45.77234 -64.58280 7935 ft 144 kts 301°
2026-05-03 21:07 45.78016 -64.59184 7926 ft 145 kts 301°
2026-05-03 21:07 45.78794 -64.60083 7931 ft 144 kts 301°
2026-05-03 21:08 45.79578 -64.60990 7935 ft 144 kts 301°
2026-05-03 21:08 45.80352 -64.61885 7934 ft 145 kts 301°
2026-05-03 21:08 45.81141 -64.62799 7933 ft 144 kts 301°
2026-05-03 21:08 45.81921 -64.63701 7925 ft 144 kts 301°
2026-05-03 21:09 45.82694 -64.64596 7912 ft 145 kts 301°
2026-05-03 21:09 45.83473 -64.65498 7923 ft 144 kts 301°
2026-05-03 21:09 45.84252 -64.66401 7920 ft 143 kts 301°
2026-05-03 21:09 45.85024 -64.67302 7918 ft 144 kts 301°
2026-05-03 21:10 45.85798 -64.68199 7921 ft 143 kts 301°
2026-05-03 21:10 45.86577 -64.69101 7926 ft 143 kts 301°
2026-05-03 21:10 45.87353 -64.70002 7927 ft 144 kts 301°
2026-05-03 21:10 45.88129 -64.70903 7924 ft 144 kts 301°
2026-05-03 21:11 45.88908 -64.71806 7925 ft 144 kts 301°
2026-05-03 21:11 45.89689 -64.72712 7926 ft 144 kts 301°
2026-05-03 21:11 45.90467 -64.73618 7932 ft 144 kts 301°
2026-05-03 21:11 45.91252 -64.74532 7929 ft 145 kts 302°
2026-05-03 21:12 45.92033 -64.75440 7924 ft 145 kts 302°
2026-05-03 21:12 45.92816 -64.76351 7923 ft 145 kts 302°
2026-05-03 21:12 45.93757 -64.77064 7907 ft 172 kts 330°
2026-05-03 21:12 45.95025 -64.76774 7932 ft 199 kts 15°
2026-05-03 21:13 45.96042 -64.75374 7963 ft 206 kts 61°
2026-05-03 21:13 45.96348 -64.73425 7884 ft 196 kts 105°
2026-05-03 21:13 45.95906 -64.71834 7729 ft 149 kts 152°
2026-05-03 21:13 45.95164 -64.71202 7557 ft 111 kts 184°
2026-05-03 21:14 45.94459 -64.70975 7376 ft 102 kts 192°
2026-05-03 21:14 45.93751 -64.70761 7189 ft 108 kts 187°
2026-05-03 21:14 45.93022 -64.70300 7022 ft 120 kts 174°
2026-05-03 21:14 45.92318 -64.69548 6833 ft 132 kts 163°
2026-05-03 21:15 45.91648 -64.68588 6653 ft 139 kts 155°
2026-05-03 21:15 45.90984 -64.67581 6448 ft 132 kts 163°
2026-05-03 21:15 45.90256 -64.67015 6259 ft 108 kts 185°
2026-05-03 21:15 45.89591 -64.66912 6092 ft 88 kts 203°
2026-05-03 21:16 45.89039 -64.67107 5906 ft 77 kts 216°
2026-05-03 21:16 45.88599 -64.67493 5726 ft 73 kts 225°
2026-05-03 21:16 45.88258 -64.68013 5546 ft 71 kts 233°
2026-05-03 21:16 45.88021 -64.68632 5372 ft 71 kts 241°
2026-05-03 21:17 45.87894 -64.69334 5188 ft 75 kts 250°
2026-05-03 21:17 45.87879 -64.69843 5062 ft 80 kts 256°
2026-05-03 21:17 45.88065 -64.70932 4820 ft 92 kts 273°
2026-05-03 21:17 45.88467 -64.71731 4638 ft 109 kts 294°
2026-05-03 21:18 45.89091 -64.72433 4467 ft 116 kts 302°
2026-05-03 21:18 45.89756 -64.73120 4279 ft 119 kts 303°
2026-05-03 21:18 45.90425 -64.73814 4121 ft 118 kts 303°
2026-05-03 21:18 45.91080 -64.74500 4016 ft 114 kts 303°
2026-05-03 21:19 45.91708 -64.75161 3994 ft 111 kts 302°
2026-05-03 21:19 45.92109 -64.75919 3955 ft 81 kts 265°
2026-05-03 21:19 45.92140 -64.76645 3985 ft 71 kts 256°
2026-05-03 21:19 45.92213 -64.77398 4020 ft 81 kts 261°
2026-05-03 21:20 45.92317 -64.78240 4011 ft 90 kts 263°
2026-05-03 21:20 45.92445 -64.79153 4010 ft 95 kts 265°
2026-05-03 21:20 45.92574 -64.80107 4001 ft 99 kts 264°
2026-05-03 21:20 45.92700 -64.81082 4027 ft 98 kts 265°
2026-05-03 21:21 45.92821 -64.82068 4001 ft 101 kts 264°
2026-05-03 21:21 45.92943 -64.83065 4002 ft 101 kts 265°
2026-05-03 21:21 45.93063 -64.84049 3999 ft 102 kts 265°
2026-05-03 21:21 45.93184 -64.85050 3997 ft 101 kts 265°
2026-05-03 21:22 45.93303 -64.86022 3996 ft 97 kts 264°
2026-05-03 21:22 45.93380 -64.86658 3997 ft 95 kts 264°
2026-05-03 21:22 45.93491 -64.87583 3997 ft 93 kts 264°
2026-05-03 21:22 45.93597 -64.88492 3994 ft 92 kts 263°
2026-05-03 21:23 45.93755 -64.89397 3992 ft 101 kts 277°
2026-05-03 21:23 45.94350 -64.90136 3963 ft 133 kts 322°
2026-05-03 21:23 45.95279 -64.90011 3941 ft 157 kts 18°
2026-05-03 21:23 45.96113 -64.88952 3933 ft 157 kts 50°
2026-05-03 21:24 45.96831 -64.87737 3804 ft 167 kts 52°
2026-05-03 21:24 45.97602 -64.86456 3646 ft 171 kts 51°
2026-05-03 21:24 45.98393 -64.85239 3606 ft 164 kts 47°
2026-05-03 21:24 45.99206 -64.84089 3488 ft 166 kts 44°
2026-05-03 21:25 46.00075 -64.82954 3271 ft 171 kts 42°
2026-05-03 21:25 46.00987 -64.81832 2989 ft 174 kts 41°
2026-05-03 21:25 46.01929 -64.80710 2650 ft 178 kts 41°
2026-05-03 21:25 46.02839 -64.79598 2325 ft 140 kts 42°
2026-05-03 21:26 46.03475 -64.78793 1931 ft 112 kts 44°
2026-05-03 21:26 46.04078 -64.77995 1895 ft 120 kts 45°
2026-05-03 21:26 46.04727 -64.77129 1819 ft 135 kts 44°
2026-05-03 21:26 46.05437 -64.76181 1643 ft 142 kts 44°
2026-05-03 21:27 46.06143 -64.75239 1472 ft 136 kts 42°
2026-05-03 21:27 46.06821 -64.74318 1261 ft 132 kts 42°
2026-05-03 21:27 46.07486 -64.73446 1079 ft 128 kts 40°
2026-05-03 21:27 46.08143 -64.72611 901 ft 123 kts 40°
2026-05-03 21:28 46.08775 -64.71802 751 ft 120 kts 40°
2026-05-03 21:28 46.09387 -64.71005 600 ft 118 kts 41°
2026-05-03 21:28 46.09945 -64.70272 410 ft 95 kts 41°
2026-05-03 21:28 46.10445 -64.69604 322 ft 87 kts 41°
2026-05-03 21:29 46.10837 -64.69082 238 ft 61 kts 36°
2026-05-03 21:29 46.11055 -64.68820 238 ft 27 kts 40°
2026-05-03 21:29 46.11168 -64.68648 238 ft 17 kts 68°
2026-05-03 21:29 46.11151 -64.68569 238 ft 0 kts 172°
2026-05-03 21:30 46.11151 -64.68568 238 ft 0 kts 172°
2026-05-03 21:32 46.11124 -64.68565 238 ft 15 kts 177°
2026-05-03 21:32 46.11033 -64.68555 238 ft 8 kts 176°
2026-05-03 21:32 46.10990 -64.68625 238 ft 0 kts 156°
2026-05-03 21:33 46.10990 -64.68624 238 ft 0 kts 156°
2026-05-03 21:34 46.10979 -64.68612 238 ft 8 kts 135°
2026-05-03 21:34 46.10928 -64.68555 238 ft 15 kts 156°
2026-05-03 21:34 46.10825 -64.68536 238 ft 13 kts 175°
2026-05-03 21:34 46.10795 -64.68533 238 ft 0 kts 172°
2026-05-03 21:40 46.10749 -64.68524 238 ft 14 kts 175°
2026-05-03 21:40 46.10661 -64.68448 238 ft 16 kts 147°
2026-05-03 21:41 46.10576 -64.68327 238 ft 17 kts 121°
2026-05-03 21:41 46.10568 -64.68177 238 ft 15 kts 90°
2026-05-03 21:41 46.10571 -64.68041 238 ft 13 kts 87°
2026-05-03 21:41 46.10560 -64.67914 238 ft 9 kts 158°
2026-05-03 21:42 46.10488 -64.67913 238 ft 6 kts 178°
2026-05-03 21:42 46.10477 -64.67912 238 ft 0 kts 179°